This is the latest recevied weather packets stored in our database for station/object HB9FHL-13. If no packets are shown the sender has not sent any weather packets the latest 10 day(s).
| Time | Temp. | Humidity | Pressure | Rain* | Wind** | Luminosity | Snow |
|---|---|---|---|---|---|---|---|
| 1778083217 | 10° C | - | 1009 hPa | 9.4 mm | - | - | - |
| 1778082916 | 10° C | - | 1008.5 hPa | 9.4 mm | - | - | - |
| 1778082616 | 10.56° C | - | 1002.5 hPa | 9.4 mm | - | - | - |
| 1778082319 | 11.11° C | - | 1014.6 hPa | 9.4 mm | - | - | - |
| 1778082015 | 9.44° C | - | 1009.5 hPa | 9.4 mm | - | - | - |
| 1778081714 | 10° C | - | 1010.1 hPa | 9.4 mm | - | - | - |
| 1778081414 | 10.56° C | - | 1014.9 hPa | 9.4 mm | - | - | - |
| 1778081112 | 10° C | - | 1012.4 hPa | 9.4 mm | - | - | - |
| 1778080811 | 9.44° C | - | 1008.4 hPa | 9.4 mm | - | - | - |
| 1778080510 | 10° C | - | 1007.5 hPa | 9.4 mm | - | - | - |
| 1778080209 | 8.89° C | - | 1007.5 hPa | 9.4 mm | - | - | - |
| 1778079909 | 9.44° C | - | 1006.5 hPa | 9.4 mm | - | - | - |
| 1778079609 | 9.44° C | - | 1008.9 hPa | 9.4 mm | - | - | - |
| 1778079308 | 9.44° C | - | 1008.8 hPa | 9.4 mm | - | - | - |
| 1778079007 | 10.56° C | - | 1009 hPa | 9.4 mm | - | - | - |
| 1778078704 | 10° C | - | 1008.9 hPa | 9.4 mm | - | - | - |
| 1778078404 | 10° C | - | 1008.4 hPa | 9.4 mm | - | - | - |
| 1778078103 | 10° C | - | 1006.9 hPa | 9.4 mm | - | - | - |
| 1778077803 | 10° C | - | 1006.7 hPa | 9.4 mm | - | - | - |
| 1778077502 | 10.56° C | - | 1007.7 hPa | 9.4 mm | - | - | - |
| 1778077200 | 10° C | - | 1009.5 hPa | 9.4 mm | - | - | - |
| 1778076898 | 10° C | - | 1006.6 hPa | 9.4 mm | - | - | - |
| 1778076597 | 8.89° C | - | 1010.8 hPa | 9.4 mm | - | - | - |
| 1778076297 | 10° C | - | 1010.4 hPa | 9.4 mm | - | - | - |
| 1778075996 | 9.44° C | - | 1012.5 hPa | 9.14 mm | - | - | - |
* Rain since midnight (hover to see other rain measurements)
** Current wind speed in m/s (hover to see current wind gust speed)